Total_Precipitation_Accumulation
0.03 0.06 0.11 0.15 0.15 0.12 0.08 0.05 0.08 0.11 0.20 0.23 0.32 0.39 0.44 0.44 0.43 0.39 0.39 0.34 0.32 0.36 0.52 0.57 0.63 0.64 0.62 0.65 0.78 0.93 1.01 1.10 1.25 1.38 1.39 1.27 1.22 1.28 1.34 1.41 1.47 1.61 1.61 1.56
0.03 0.06 0.10 0.12 0.14 0.10 0.07 0.05 0.06 0.08 0.14 0.20 0.33 0.35 0.40 0.37 0.35 0.39 0.41 0.37 0.34 0.44 0.58 0.59 0.57 0.58 0.59 0.64 0.72 0.77 0.87 0.96 1.13 1.30 1.37 1.33 1.30 1.39 1.50 1.56 1.68 1.75 1.69 1.66
0.04 0.07 0.09 0.16 0.13 0.09 0.08 0.07 0.07 0.10 0.15 0.19 0.28 0.39 0.46 0.49 0.53 0.52 0.40 0.35 0.37 0.43 0.51 0.60 0.53 0.49 0.56 0.64 0.74 0.85 0.98 1.09 1.15 1.27 1.36 1.37 1.34 1.44 1.55 1.58 1.60 1.66 1.66 1.64
0.09 0.10 0.15 0.16 0.12 0.11 0.11 0.12 0.16 0.19 0.21 0.26 0.28 0.37 0.47 0.50 0.49 0.49 0.47 0.54 0.59 0.68 0.70 0.68 0.62 0.61 0.68 0.73 0.81 0.87 0.94 1.04 1.11 1.22 1.33 1.43 1.58 1.66 1.72 1.77 1.78 1.77 1.72 1.69
0.16 0.15 0.18 0.20 0.18 0.18 0.21 0.25 0.27 0.34 0.39 0.38 0.37 0.38 0.47 0.55 0.54 0.58 0.56 0.59 0.68 0.77 0.82 0.74 0.74 0.76 0.84 0.89 0.99 1.06 1.07 1.17 1.25 1.33 1.46 1.54 1.60 1.72 1.83 1.90 1.88 1.88 1.87 1.88
0.24 0.26 0.28 0.28 0.29 0.24 0.27 0.50 0.46 0.49 0.53 0.52 0.53 0.67 0.78 0.79 0.70 0.66 0.66 0.68 0.75 0.77 0.78 0.86 0.88 0.92 1.00 1.07 1.19 1.26 1.27 1.31 1.37 1.51 1.60 1.60 1.60 1.66 1.71 1.77 1.79 1.81 1.78 1.85
0.35 0.34 0.33 0.32 0.32 0.32 0.57 0.83 0.84 0.82 0.78 0.68 0.76 0.83 0.78 0.71 0.76 0.73 0.77 0.86 0.84 0.83 0.88 0.90 0.88 0.92 1.05 1.19 1.31 1.37 1.39 1.40 1.46 1.56 1.71 1.72 1.71 1.65 1.59 1.60 1.64 1.69 1.72 1.79
0.55 0.64 0.66 0.46 0.48 0.68 0.87 0.85 1.00 0.91 0.81 0.78 0.77 0.75 0.69 0.70 0.81 0.89 0.93 0.99 0.98 0.96 0.93 0.93 0.97 1.03 1.13 1.25 1.31 1.36 1.36 1.39 1.44 1.48 1.49 1.49 1.59 1.63 1.62 1.60 1.62 1.67 1.76 1.78
0.76 0.83 0.75 0.64 0.66 0.74 0.71 0.73 0.86 0.83 0.73 0.74 0.72 0.69 0.66 0.70 0.77 0.80 0.85 0.92 0.94 0.97 0.99 1.02 1.08 1.17 1.28 1.32 1.35 1.35 1.41 1.50 1.56 1.56 1.53 1.51 1.52 1.55 1.54 1.49 1.41 1.39 1.51 1.59
1.02 1.04 0.90 0.76 0.65 0.65 0.66 0.68 0.71 0.78 0.82 0.80 0.75 0.71 0.72 0.73 0.77 0.86 0.91 0.93 0.95 0.96 1.00 1.12 1.21 1.33 1.34 1.30 1.37 1.50 1.54 1.53 1.51 1.52 1.49 1.46 1.51 1.47 1.42 1.39 1.33 1.27 1.39 1.52
1.47 1.52 1.31 1.14 0.95 0.84 0.80 0.79 0.80 0.86 0.92 0.98 0.98 0.94 0.91 0.84 0.81 0.84 0.89 0.89 0.91 0.97 1.05 1.14 1.20 1.28 1.37 1.39 1.43 1.50 1.44 1.32 1.33 1.37 1.32 1.27 1.32 1.35 1.25 1.23 1.28 1.25 1.38 1.58
1.77 1.63 1.57 1.45 1.18 1.01 0.97 1.03 0.96 0.97 0.98 0.98 0.96 0.96 0.96 0.94 0.83 0.77 0.78 0.86 0.91 0.96 1.04 1.12 1.16 1.21 1.23 1.26 1.35 1.42 1.43 1.35 1.27 1.21 1.19 1.20 1.20 1.19 1.16 1.01 1.01 0.97 1.03 1.16
1.46 1.43 1.44 1.36 1.21 1.05 1.05 1.04 1.03 1.02 1.02 0.99 0.94 0.85 0.81 0.86 0.88 0.84 0.84 0.87 0.93 1.00 1.05 1.09 1.09 1.10 1.10 1.16 1.31 1.43 1.46 1.43 1.32 1.13 1.03 0.99 1.01 1.05 1.06 0.98 0.79 0.74 0.73 0.73
1.47 1.40 1.43 1.34 1.29 1.15 1.14 1.06 1.03 0.98 0.95 0.93 0.96 0.91 0.82 0.81 0.90 0.97 0.99 1.01 1.09 1.14 1.09 1.04 1.02 1.02 1.02 1.05 1.13 1.20 1.24 1.27 1.19 1.06 0.98 0.92 0.89 0.87 0.86 0.93 0.94 0.83 0.69 0.61
1.27 1.28 1.39 1.35 1.29 1.24 1.24 1.16 1.05 0.93 0.89 0.94 1.01 0.99 0.94 0.93 1.01 1.16 1.20 1.23 1.26 1.22 1.12 1.03 1.00 1.03 1.04 1.06 1.05 1.01 1.07 1.09 1.03 1.00 0.99 0.97 0.96 0.91 0.85 0.86 0.95 1.01 0.94 0.73
1.12 1.20 1.22 1.29 1.40 1.29 1.19 1.14 1.09 1.00 0.91 0.90 0.94 0.94 0.90 0.88 0.95 1.07 1.15 1.26 1.35 1.35 1.23 1.14 1.03 0.95 0.93 1.01 1.04 0.97 0.96 1.05 0.98 0.90 0.90 0.93 0.93 0.89 0.90 0.97 1.04 1.15 1.17 0.92
1.18 1.23 1.18 1.19 1.30 1.29 1.19 1.10 1.09 1.05 1.00 1.01 1.01 0.95 0.91 0.88 0.94 1.04 1.06 1.07 1.09 1.09 1.06 1.04 0.94 0.83 0.80 0.88 0.91 0.90 0.88 0.91 0.93 0.86 0.88 0.91 0.92 0.93 0.95 1.04 1.15 1.21 1.16 0.96
1.12 1.04 1.01 1.03 1.08 1.11 1.09 1.07 1.07 1.01 0.98 1.00 1.00 0.95 0.90 0.89 0.98 1.09 1.11 1.10 1.00 0.91 0.89 0.85 0.76 0.70 0.71 0.73 0.76 0.81 0.82 0.85 0.85 0.84 0.85 0.86 0.89 0.97 1.03 1.15 1.26 1.30 1.17 1.00
1.16 1.05 0.95 0.92 0.86 0.87 0.94 0.98 0.99 0.95 0.92 0.90 0.92 0.92 0.86 0.81 0.90 1.01 1.05 1.14 1.18 1.10 0.94 0.79 0.72 0.64 0.65 0.67 0.67 0.71 0.74 0.78 0.82 0.86 0.86 0.83 0.84 0.89 0.94 1.02 1.15 1.21 1.12 1.06
1.22 1.15 1.00 0.89 0.85 0.79 0.79 0.78 0.83 0.87 0.84 0.78 0.78 0.80 0.78 0.78 0.91 1.05 1.10 1.18 1.27 1.20 1.03 0.85 0.61 0.52 0.49 0.51 0.55 0.54 0.55 0.54 0.55 0.58 0.61 0.65 0.69 0.72 0.74 0.80 0.94 1.01 0.98 1.01
1.23 1.15 1.03 0.90 0.90 0.85 0.78 0.71 0.72 0.76 0.75 0.76 0.80 0.79 0.78 0.77 0.82 1.00 1.28 1.39 1.24 1.07 0.98 0.93 0.64 0.46 0.39 0.42 0.50 0.49 0.49 0.49 0.48 0.51 0.53 0.56 0.60 0.65 0.72 0.80 0.85 0.88 0.92 0.94
1.15 1.09 1.00 0.90 0.85 0.86 0.82 0.73 0.68 0.69 0.69 0.70 0.70 0.71 0.75 0.74 0.76 0.88 1.05 1.24 1.16 1.05 0.84 0.77 0.65 0.47 0.40 0.36 0.35 0.41 0.46 0.51 0.52 0.55 0.58 0.60 0.63 0.68 0.73 0.74 0.75 0.77 0.82 0.88
1.12 1.05 0.96 0.86 0.79 0.78 0.75 0.73 0.68 0.65 0.64 0.63 0.63 0.67 0.74 0.76 0.75 0.88 0.97 0.87 0.83 0.83 0.69 0.65 0.63 0.54 0.44 0.37 0.36 0.38 0.41 0.47 0.51 0.53 0.54 0.55 0.60 0.64 0.68 0.70 0.71 0.72 0.80 0.86
1.02 1.04 0.98 0.91 0.80 0.73 0.73 0.72 0.66 0.62 0.61 0.62 0.64 0.67 0.72 0.72 0.66 0.64 0.70 0.74 0.75 0.74 0.64 0.64 0.58 0.47 0.41 0.39 0.43 0.44 0.45 0.48 0.50 0.51 0.50 0.53 0.59 0.65 0.73 0.78 0.79 0.78 0.79 0.79
0.93 0.89 0.86 0.87 0.81 0.71 0.67 0.65 0.64 0.65 0.64 0.64 0.63 0.65 0.65 0.64 0.64 0.62 0.61 0.63 0.66 0.62 0.58 0.60 0.56 0.53 0.47 0.48 0.51 0.52 0.51 0.52 0.54 0.53 0.54 0.57 0.63 0.71 0.77 0.79 0.78 0.75 0.73 0.72
0.80 0.77 0.78 0.76 0.72 0.67 0.64 0.64 0.67 0.67 0.66 0.66 0.66 0.66 0.61 0.59 0.62 0.66 0.72 0.70 0.65 0.62 0.56 0.53 0.52 0.55 0.53 0.56 0.60 0.61 0.59 0.58 0.57 0.55 0.58 0.65 0.70 0.76 0.75 0.68 0.65 0.64 0.62 0.58
0.72 0.71 0.72 0.72 0.71 0.66 0.62 0.62 0.67 0.76 0.75 0.70 0.72 0.72 0.70 0.72 0.73 0.74 0.73 0.72 0.69 0.63 0.57 0.52 0.48 0.45 0.46 0.50 0.53 0.56 0.57 0.57 0.56 0.58 0.63 0.67 0.66 0.63 0.59 0.53 0.54 0.52 0.47 0.46